Location: Bamazo
(6.7448°N, 10.8189°W)
Time: 03:56:16
(UTC+00:00)

Meteor 1-12 Rocket - Pass Details

Date: 18 September 2020
Orbit: 854 x 927 km, 81.2° (Epoch: 23 October)

Event Time Altitude Azimuth Distance (km) Brightness Sun altitude
Rises 19:37:50 0° 180° (S) 3,568 7.4 -14.9°
Reaches altitude 10° 19:40:20 10° 178° (S) 2,622 6.7 -15.5°
Maximum altitude 19:46:18 72° 95° (E) 966 4.3 -17.0°
Drops below altitude 10° 19:52:12 10° 11° (N) 2,590 6.7 -18.4°
Sets 19:54:39 0° 9° (N) 3,521 7.4 -19.1°
